Date,TemperatureHighF,TemperatureAvgF,TemperatureLowF,DewpointHighF,DewpointAvgF,DewpointLowF,HumidityHigh,HumidityAvg,HumidityLow,PressureMaxIn,PressureMinIn,WindSpeedMaxMPH,WindSpeedAvgMPH,GustSpeedMaxMPH,PrecipitationSumIn
2013-2-1,35.8,30.0,24.4,13.1,10.9,7.9,58,45,33,30.20,30.01,43,12,43,0.00
2013-2-2,47.3,34.0,16.9,9.4,4.4,0.9,55,29,15,30.28,30.19,20,4,25,0.00
2013-2-3,45.2,34.0,22.9,13.6,1.9,-14.0,51,27,9,30.23,29.99,34,8,38,0.00
2013-2-4,41.6,31.5,16.9,9.9,4.5,-1.3,58,34,18,30.05,29.99,32,8,33,0.00
2013-2-5,48.0,34.8,17.8,14.8,9.7,5.4,59,37,20,30.10,29.99,20,3,21,0.00
2013-2-6,44.6,35.9,26.4,18.9,13.1,8.1,57,40,22,30.01,29.91,25,7,29,0.00
2013-2-7,44.1,27.0,12.4,17.2,7.6,-1.6,76,47,21,30.13,30.01,20,3,22,0.00
2013-2-8,43.1,30.4,18.6,22.6,12.9,4.8,72,50,26,30.08,29.80,26,4,26,0.00
2013-2-9,31.5,25.4,19.1,19.1,11.9,0.4,85,57,31,29.80,29.58,25,6,28,0.02
2013-2-10,29.0,21.2,16.1,12.9,2.5,-7.4,79,46,21,29.88,29.65,25,6,28,0.00
2013-2-11,20.6,12.8,3.4,12.7,6.1,-3.1,82,74,59,29.95,29.87,9,2,14,0.05
2013-2-12,31.0,14.4,-3.5,9.5,0.1,-10.2,78,55,33,30.02,29.95,28,4,29,0.02
2013-2-13,36.2,23.1,8.4,10.2,5.9,-0.1,69,49,26,30.05,29.99,32,6,32,0.00
2013-2-14,36.0,25.3,14.4,13.2,6.6,1.8,65,46,24,30.13,29.99,29,6,29,0.00
2013-2-15,33.7,24.5,16.4,5.9,1.3,-3.9,53,37,22,30.24,30.11,33,8,34,0.00
2013-2-16,41.8,32.7,21.0,7.8,4.1,1.2,46,30,23,30.24,30.09,31,8,33,0.00
2013-2-17,45.4,35.8,27.8,15.2,-4.3,-17.7,57,20,7,30.09,29.76,30,9,31,0.00
2013-2-18,29.3,22.6,10.7,19.5,1.9,-7.3,81,43,25,30.04,29.79,31,8,35,0.00
2013-2-19,37.6,23.8,7.6,5.3,-3.1,-13.7,48,32,17,30.04,29.80,25,4,27,0.00
2013-2-20,34.6,24.6,17.2,22.9,13.9,3.1,90,65,42,29.80,29.60,14,2,16,0.00
2013-2-21,31.8,22.4,14.8,20.4,14.0,8.6,85,70,47,29.82,29.61,28,6,28,0.18
2013-2-22,31.2,19.2,7.7,14.8,7.2,0.6,81,60,33,29.91,29.81,22,4,28,0.01
2013-2-23,32.4,22.9,16.1,20.5,8.2,-4.8,86,55,28,29.90,29.70,36,10,44,0.01
2013-2-24,25.6,16.0,1.3,16.5,8.0,-4.3,84,71,47,29.96,29.68,25,4,25,0.07
2013-2-25,34.0,18.2,-1.4,13.2,3.1,-8.0,75,53,31,29.99,29.85,29,5,30,0.19
2013-2-26,26.6,20.8,8.4,10.9,4.2,-3.7,68,48,39,30.02,29.77,27,6,27,0.00
2013-2-27,29.1,15.9,-1.8,3.2,-3.0,-10.6,67,44,27,30.14,30.02,30,6,30,0.00
2013-2-28,35.9,19.7,0.7,7.9,0.5,-9.2,65,45,24,30.20,30.11,33,5,33,0.00